Meteo pe oră la Dzimierz

Astăzi, 2 Martie, Marţi

Timp Temperatura Precipitaţii Vânt Presiune Umiditate
00:00 +2°C° 0 mm 1 m/s 754 mmHg 87%
01:00 +2°C° 0 mm 1 m/s 754 mmHg 88%
02:00 +2°C° 0 mm 1 m/s 754 mmHg 88%
03:00 +2°C° 0 mm 1 m/s 753 mmHg 87%
04:00 +2°C° 0 mm 1 m/s 753 mmHg 87%
05:00 +2°C° 0 mm 1 m/s 753 mmHg 84%
06:00 +2°C° 0 mm 1 m/s 753 mmHg 82%
07:00 +2°C° 0 mm 1 m/s 754 mmHg 80%
08:00 +3°C° 0 mm 2 m/s 753 mmHg 73%
09:00 +5°C° 0 mm 2 m/s 753 mmHg 65%
10:00 +7°C° 0 mm 2 m/s 753 mmHg 58%
11:00 +8°C° 0 mm 2 m/s 753 mmHg 55%
12:00 +10°C° 0 mm 2 m/s 753 mmHg 51%
13:00 +12°C° 0 mm 2 m/s 753 mmHg 48%
14:00 +12°C° 0 mm 2 m/s 753 mmHg 50%
15:00 +12°C° 0 mm 1 m/s 752 mmHg 51%
16:00 +12°C° 0 mm 1 m/s 752 mmHg 53%
17:00 +11°C° 0 mm 1 m/s 752 mmHg 58%
18:00 +9°C° 0 mm 1 m/s 752 mmHg 63%
19:00 +8°C° 0 mm 1 m/s 752 mmHg 68%
20:00 +7°C° 0 mm 1 m/s 752 mmHg 70%
21:00 +7°C° 0 mm 1 m/s 752 mmHg 72%
22:00 +6°C° 0 mm 1 m/s 752 mmHg 74%
23:00 +6°C° 0 mm 1 m/s 752 mmHg 74%

Mâine, 3 Martie, Miercuri

Timp Temperatura Precipitaţii Vânt Presiune Umiditate
00:00 +6°C° 0 mm 1 m/s 752 mmHg 75%
01:00 +5°C° 0 mm 1 m/s 752 mmHg 76%
02:00 +5°C° 0 mm 1 m/s 752 mmHg 76%
03:00 +5°C° 0 mm 1 m/s 751 mmHg 76%
04:00 +4°C° 0 mm 1 m/s 751 mmHg 76%
05:00 +4°C° 0 mm 1 m/s 751 mmHg 75%
06:00 +3°C° 0 mm 2 m/s 751 mmHg 74%
07:00 +3°C° 0 mm 2 m/s 751 mmHg 73%
08:00 +5°C° 0 mm 2 m/s 751 mmHg 66%
09:00 +7°C° 0 mm 2 m/s 750 mmHg 60%
10:00 +9°C° 0 mm 2 m/s 750 mmHg 53%
11:00 +10°C° 0 mm 2 m/s 750 mmHg 50%
12:00 +11°C° 0 mm 3 m/s 749 mmHg 47%
13:00 +13°C° 0 mm 3 m/s 749 mmHg 44%
14:00 +12°C° 0 mm 3 m/s 748 mmHg 46%
15:00 +12°C° 0 mm 4 m/s 748 mmHg 48%
16:00 +12°C° 0 mm 4 m/s 747 mmHg 50%
17:00 +10°C° 0 mm 4 m/s 747 mmHg 55%
18:00 +8°C° 0 mm 4 m/s 747 mmHg 61%
19:00 +6°C° 0 mm 4 m/s 747 mmHg 66%
20:00 +6°C° 0 mm 4 m/s 746 mmHg 69%
21:00 +5°C° 0 mm 4 m/s 746 mmHg 71%
22:00 +5°C° 0 mm 3 m/s 745 mmHg 74%
23:00 +5°C° 0 mm 3 m/s 745 mmHg 76%

Poimâine, 4 Martie, Joi

Timp Temperatura Precipitaţii Vânt Presiune Umiditate
00:00 +4°C° 0 mm 3 m/s 745 mmHg 77%
01:00 +4°C° 0 mm 3 m/s 744 mmHg 79%
02:00 +4°C° 0 mm 3 m/s 744 mmHg 79%
03:00 +4°C° 0 mm 3 m/s 743 mmHg 79%
04:00 +4°C° 0 mm 4 m/s 742 mmHg 79%
05:00 +4°C° 0 mm 4 m/s 742 mmHg 79%
06:00 +4°C° 0 mm 4 m/s 742 mmHg 79%
07:00 +4°C° 0 mm 4 m/s 742 mmHg 79%
08:00 +5°C° 0 mm 4 m/s 741 mmHg 74%
09:00 +8°C° 0 mm 3 m/s 741 mmHg 68%
10:00 +9°C° 0 mm 3 m/s 741 mmHg 63%
11:00 +10°C° 0 mm 4 m/s 740 mmHg 60%
12:00 +11°C° 0 mm 4 m/s 740 mmHg 57%
13:00 +12°C° 0 mm 4 m/s 739 mmHg 55%
14:00 +12°C° 0 mm 4 m/s 739 mmHg 56%
15:00 +12°C° 0 mm 4 m/s 738 mmHg 58%
16:00 +12°C° 0 mm 4 m/s 737 mmHg 59%
17:00 +11°C° 0 mm 3 m/s 737 mmHg 63%
18:00 +10°C° 0 mm 3 m/s 737 mmHg 68%
19:00 +9°C° 0 mm 2 m/s 737 mmHg 72%
20:00 +8°C° 0.9 mm 3 m/s 737 mmHg 77%
21:00 +7°C° 0.9 mm 3 m/s 737 mmHg 83%
22:00 +5°C° 0.9 mm 3 m/s 737 mmHg 88%
23:00 +5°C° 0.8 mm 3 m/s 737 mmHg 89%

5 Martie, Vineri

Timp Temperatura Precipitaţii Vânt Presiune Umiditate
00:00 +5°C° 0.8 mm 3 m/s 737 mmHg 89%
01:00 +4°C° 0.8 mm 3 m/s 737 mmHg 90%
02:00 +4°C° 0.3 mm 3 m/s 737 mmHg 90%
03:00 +3°C° 0.3 mm 3 m/s 737 mmHg 91%
04:00 +3°C° 0.3 mm 4 m/s 736 mmHg 91%
05:00 +1°C° 0.4 mm 4 m/s 737 mmHg 92%
06:00 0°C° 0.4 mm 4 m/s 737 mmHg 93%
07:00 0°C° 0.4 mm 4 m/s 737 mmHg 94%
08:00 -1°C° 0.4 mm 4 m/s 738 mmHg 92%
09:00 -1°C° 0.4 mm 5 m/s 738 mmHg 90%
10:00 -1°C° 0.4 mm 5 m/s 739 mmHg 88%
11:00 -1°C° 0.1 mm 5 m/s 739 mmHg 80%
12:00 0°C° 0.1 mm 5 m/s 740 mmHg 73%
13:00 0°C° 0.1 mm 5 m/s 741 mmHg 65%
14:00 0°C° 0 mm 5 m/s 741 mmHg 61%
15:00 0°C° 0 mm 5 m/s 741 mmHg 57%
16:00 0°C° 0 mm 5 m/s 742 mmHg 52%
17:00 0°C° 0 mm 4 m/s 743 mmHg 55%
18:00 -1°C° 0 mm 4 m/s 743 mmHg 58%
19:00 -1°C° 0 mm 3 m/s 744 mmHg 60%
20:00 -1°C° 0 mm 3 m/s 745 mmHg 62%
21:00 -1°C° 0 mm 3 m/s 745 mmHg 64%
22:00 -2°C° 0 mm 2 m/s 746 mmHg 67%
23:00 -2°C° 0 mm 3 m/s 746 mmHg 67%

6 Martie, Sâmbătă

Timp Temperatura Precipitaţii Vânt Presiune Umiditate
00:00 -2°C° 0 mm 3 m/s 746 mmHg 68%
01:00 -2°C° 0 mm 3 m/s 747 mmHg 68%
02:00 -3°C° 0 mm 4 m/s 747 mmHg 70%
03:00 -3°C° 0 mm 4 m/s 747 mmHg 71%
04:00 -4°C° 0 mm 4 m/s 748 mmHg 73%
05:00 -4°C° 0 mm 4 m/s 748 mmHg 73%
06:00 -4°C° 0 mm 4 m/s 749 mmHg 74%
07:00 -4°C° 0 mm 4 m/s 749 mmHg 74%
08:00 -3°C° 0 mm 4 m/s 749 mmHg 65%
09:00 -2°C° 0 mm 4 m/s 750 mmHg 57%
10:00 -2°C° 0 mm 4 m/s 750 mmHg 48%
11:00 -1°C° 0 mm 4 m/s 750 mmHg 46%
12:00 -1°C° 0 mm 4 m/s 750 mmHg 44%
13:00 0°C° 0 mm 4 m/s 750 mmHg 42%
14:00 +1°C° 0 mm 3 m/s 750 mmHg 43%
15:00 +1°C° 0 mm 3 m/s 750 mmHg 44%
16:00 +1°C° 0 mm 3 m/s 750 mmHg 44%
17:00 0°C° 0 mm 3 m/s 750 mmHg 49%
18:00 -1°C° 0 mm 2 m/s 750 mmHg 54%
19:00 -2°C° 0 mm 2 m/s 750 mmHg 59%
20:00 -2°C° 0 mm 2 m/s 750 mmHg 59%
21:00 -2°C° 0 mm 2 m/s 750 mmHg 60%
22:00 -2°C° 0 mm 3 m/s 750 mmHg 60%
23:00 -2°C° 0 mm 3 m/s 750 mmHg 60%

7 Martie, Duminică

Timp Temperatura Precipitaţii Vânt Presiune Umiditate
00:00 -2°C° 0 mm 3 m/s 749 mmHg 60%
01:00 -2°C° 0 mm 3 m/s 749 mmHg 60%
02:00 -2°C° 0 mm 3 m/s 748 mmHg 59%
03:00 -2°C° 0 mm 3 m/s 748 mmHg 58%
04:00 -2°C° 0 mm 3 m/s 748 mmHg 57%
05:00 -3°C° 0 mm 4 m/s 747 mmHg 56%
06:00 -3°C° 0 mm 4 m/s 747 mmHg 55%
07:00 -3°C° 0 mm 4 m/s 747 mmHg 54%
08:00 -2°C° 0 mm 4 m/s 746 mmHg 50%
09:00 -1°C° 0 mm 4 m/s 746 mmHg 46%
10:00 +1°C° 0 mm 5 m/s 746 mmHg 42%
11:00 +2°C° 0 mm 5 m/s 745 mmHg 41%
12:00 +2°C° 0 mm 5 m/s 744 mmHg 41%
13:00 +3°C° 0 mm 5 m/s 744 mmHg 40%
14:00 +3°C° 0 mm 5 m/s 743 mmHg 41%
15:00 +3°C° 0 mm 5 m/s 742 mmHg 43%
16:00 +3°C° 0 mm 5 m/s 742 mmHg 44%
17:00 +3°C° 0 mm 4 m/s 742 mmHg 49%
18:00 0°C° 0 mm 4 m/s 741 mmHg 53%
19:00 -1°C° 0 mm 4 m/s 741 mmHg 58%
20:00 0°C° 0 mm 3 m/s 741 mmHg 60%
21:00 0°C° 0 mm 3 m/s 741 mmHg 61%
22:00 -1°C° 0 mm 3 m/s 741 mmHg 63%
23:00 -1°C° 0 mm 3 m/s 740 mmHg 68%
Arată mai mult

Formular de consimțământ

Meteoprog și furnizorii noștri de servicii pot stoca și accesa date personale, precum cookies, identificatori de dispozitiv sau alte tehnologii similare pe dispozitivul dumneavoastră și procesa astfel de date pentru a personaliza conținutul și reclamele, dar și pentru a oferi caracteristici de social media și pentru a analiza traficul.

  • Stocarea și/sau accesarea informațiilor pe dispozitivul dumneavoastră

    Cookies, identificatori de dispozitiv sau alte informații pot fi stocate sau accesate pe dispozitiv în scopurile indicate mai sus.

  • Reclame și conținut personalizat, evaluarea reclamelor și a conținutului, informații despre audiențe și dezvoltarea produselor

    Reclamele și conținutul pot fi personalizate pe baza unui profil. Pot fi adăugate date suplimentare pentru a personaliza mai bine reclamele și conținutul. Performanța reclamelor și conținutului poate fi măsurată. Pot fi obținute informații despre utilizatorii care au văzut reclamele și conținutul. Aceste date pot fi utilizate pentru a dezvolta sau îmbunătăți experiența utilizatorilor, sistemele și software-ul.

Dând clic pe ‘Sunt de acord’, permiteți utilizarea cookie-urilor menționate, a identificatorilor de dispozitiv, balizelor web sau altor tehnologii similare. Setările pot fi modificate din browser-ul dispozitivului dumneavoastră.

În anumite scopuri, interesele legitime pot prima asupra consimțământului. Puteți citi mai multe informații în acest sens în Politica privind Confidențialitatea Datelor și Cookie.